| time (UTC) | temp F | wind direction | speed knots | gust knots | rain 1hr in | rain 24hr in | rain mn in | humidity % | barometer mb |
| 20260504000107 | 59 | 0.0 | 0.9 | 0.00 | 0.00 | 0.00 | 36 | 1016.3 | |
| 20260503235147 | 60 | 123 | 0.0 | 1.7 | 0.00 | 0.00 | 0.00 | 35 | 1016.3 |
| 20260503234106 | 60 | 330 | 0.9 | 2.6 | 0.00 | 0.00 | 0.00 | 34 | 1016.2 |
| 20260503233106 | 61 | 305 | 0.9 | 2.6 | 0.00 | 0.00 | 0.00 | 33 | 1016.3 |
| 20260503232126 | 62 | 307 | 0.9 | 3.5 | 0.00 | 0.00 | 0.00 | 30 | 1016.3 |
| 20260503231106 | 62 | 53 | 0.9 | 4.3 | 0.00 | 0.00 | 0.00 | 30 | 1016.2 |
| 20260503230105 | 63 | 304 | 1.7 | 4.3 | 0.00 | 0.00 | 0.00 | 30 | 1016.2 |
| 20260503225105 | 63 | 171 | 0.9 | 4.3 | 0.00 | 0.00 | 0.00 | 29 | 1016.3 |
| 20260503224105 | 63 | 299 | 0.9 | 5.2 | 0.00 | 0.00 | 0.00 | 29 | 1016.3 |
| 20260503223107 | 63 | 332 | 2.6 | 4.3 | 0.00 | 0.00 | 0.00 | 30 | 1016.3 |
| 20260503222106 | 63 | 130 | 0.9 | 4.3 | 0.00 | 0.00 | 0.00 | 29 | 1016.3 |
| 20260503221106 | 63 | 316 | 1.7 | 3.5 | 0.00 | 0.00 | 0.00 | 30 | 1016.3 |
| 20260503220106 | 62 | 335 | 1.7 | 4.3 | 0.00 | 0.00 | 0.00 | 30 | 1016.2 |
| 20260503215106 | 62 | 311 | 3.5 | 7.0 | 0.00 | 0.00 | 0.00 | 31 | 1016.1 |
| 20260503214106 | 63 | 201 | 2.6 | 3.5 | 0.00 | 0.00 | 0.00 | 29 | 1016.3 |
| 20260503213125 | 62 | 326 | 3.5 | 7.8 | 0.00 | 0.00 | 0.00 | 29 | 1016.2 |
| 20260503212126 | 63 | 291 | 2.6 | 7.0 | 0.00 | 0.00 | 0.00 | 28 | 1016.2 |
| 20260503211105 | 63 | 302 | 3.5 | 7.8 | 0.00 | 0.00 | 0.00 | 29 | 1016.2 |
| 20260503210127 | 62 | 258 | 2.6 | 7.0 | 0.00 | 0.00 | 0.00 | 30 | 1016.1 |
| 20260503205106 | 62 | 336 | 2.6 | 8.7 | 0.00 | 0.00 | 0.00 | 30 | 1016.1 |
| 20260503204106 | 62 | 352 | 4.3 | 9.6 | 0.00 | 0.00 | 0.00 | 30 | 1016.2 |
| 20260503203106 | 61 | 335 | 4.3 | 7.8 | 0.00 | 0.00 | 0.00 | 31 | 1016.4 |
| 20260503202106 | 61 | 339 | 4.3 | 11.3 | 0.00 | 0.00 | 0.00 | 31 | 1016.4 |
| 20260503201105 | 61 | 333 | 4.3 | 9.6 | 0.00 | 0.00 | 0.00 | 30 | 1016.4 |
| 20260503200107 | 62 | 320 | 3.5 | 10.4 | 0.00 | 0.00 | 0.00 | 29 | 1016.6 |
| 20260503195107 | 62 | 319 | 3.5 | 8.7 | 0.00 | 0.00 | 0.00 | 28 | 1016.6 |
| 20260503194108 | 61 | 338 | 4.3 | 8.7 | 0.00 | 0.00 | 0.00 | 32 | 1016.7 |
| 20260503193107 | 61 | 343 | 1.7 | 5.2 | 0.00 | 0.00 | 0.00 | 30 | 1016.8 |
| 20260503192106 | 61 | 352 | 4.3 | 8.7 | 0.00 | 0.00 | 0.00 | 30 | 1017.0 |
| 20260503191106 | 61 | 343 | 5.2 | 10.4 | 0.00 | 0.00 | 0.00 | 30 | 1017.2 |
| 20260503190106 | 61 | 338 | 4.3 | 9.6 | 0.00 | 0.00 | 0.00 | 30 | 1017.3 |
| 20260503185106 | 60 | 2 | 4.3 | 7.8 | 0.00 | 0.00 | 0.00 | 31 | 1017.3 |
| 20260503184106 | 60 | 357 | 3.5 | 9.6 | 0.00 | 0.00 | 0.00 | 33 | 1017.3 |
| 20260503183107 | 60 | 308 | 4.3 | 9.6 | 0.00 | 0.00 | 0.00 | 32 | 1017.4 |
| 20260503182107 | 59 | 339 | 3.5 | 7.0 | 0.00 | 0.00 | 0.00 | 34 | 1017.3 |
| 20260503181107 | 59 | 28 | 3.5 | 11.3 | 0.00 | 0.00 | 0.00 | 35 | 1017.4 |
| 20260503180107 | 59 | 321 | 4.3 | 9.6 | 0.00 | 0.00 | 0.00 | 34 | 1017.4 |
| 20260503175107 | 60 | 346 | 4.3 | 10.4 | 0.00 | 0.00 | 0.00 | 34 | 1017.6 |
| 20260503174106 | 59 | 267 | 2.6 | 7.8 | 0.00 | 0.00 | 0.00 | 34 | 1017.6 |
| 20260503173106 | 59 | 321 | 2.6 | 10.4 | 0.00 | 0.00 | 0.00 | 35 | 1017.7 |
| 20260503172106 | 59 | 312 | 3.5 | 10.4 | 0.00 | 0.00 | 0.00 | 34 | 1017.8 |
| 20260503171106 | 58 | 304 | 4.3 | 9.6 | 0.00 | 0.00 | 0.00 | 34 | 1017.9 |
| 20260503170107 | 58 | 325 | 4.3 | 9.6 | 0.00 | 0.00 | 0.00 | 34 | 1018.0 |
| 20260503160106 | 57 | 319 | 2.6 | 7.8 | 0.00 | 0.00 | 0.00 | 36 | 1018.2 |
| 20260503150106 | 54 | 284 | 2.6 | 9.6 | 0.00 | 0.00 | 0.00 | 41 | 1018.1 |
| 20260503140107 | 52 | 359 | 4.3 | 11.3 | 0.01 | 0.00 | 0.00 | 48 | 1018.0 |
| 20260503131125 | 47 | 312 | 6.1 | 13.0 | 0.04 | 0.00 | 0.00 | 75 | 1017.6 |
| 20260503130107 | 48 | 351 | 7.0 | 13.0 | 0.03 | 0.00 | 0.00 | 70 | 1017.5 |
| 20260503120107 | 51 | 342 | 6.1 | 11.3 | 0.00 | 0.00 | 0.00 | 51 | 1016.6 |
| 20260503110126 | 52 | 351 | 5.2 | 11.3 | 0.00 | 0.00 | 0.00 | 50 | 1016.0 |
| 20260503100107 | 52 | 294 | 3.5 | 8.7 | 0.00 | 0.00 | 0.00 | 55 | 1014.8 |
| 20260503090106 | 54 | 353 | 6.1 | 13.0 | 0.00 | 0.00 | 0.00 | 52 | 1013.9 |
| 20260503081106 | 54 | 323 | 5.2 | 13.0 | 0.00 | 0.00 | 0.00 | 56 | 1013.3 |
| 20260503080106 | 54 | 349 | 4.3 | 11.3 | 0.00 | 0.00 | 0.00 | 57 | 1013.0 |
| 20260503072106 | 54 | 26 | 2.6 | 7.8 | 0.00 | 0.00 | 0.00 | 63 | 1012.8 |
| 20260503071106 | 54 | 326 | 3.5 | 5.2 | 0.00 | 0.00 | 0.00 | 62 | 1012.6 |
| 20260503070105 | 54 | 10 | 2.6 | 5.2 | 0.00 | 0.00 | 0.00 | 62 | 1012.5 |
| 20260503060106 | 54 | 340 | 2.6 | 7.8 | 0.00 | 0.00 | 0.00 | 58 | 1012.0 |
| 20260503055106 | 54 | 341 | 2.6 | 7.0 | 0.00 | 0.00 | 0.00 | 57 | 1012.1 |
| 20260503054146 | 55 | 347 | 2.6 | 6.1 | 0.00 | 0.00 | 0.00 | 59 | 1012.2 |
| 20260503053108 | 55 | 358 | 2.6 | 5.2 | 0.00 | 0.00 | 0.00 | 59 | 1012.3 |
| 20260503052127 | 55 | 306 | 1.7 | 6.1 | 0.00 | 0.00 | 0.00 | 57 | 1012.5 |
| 20260503051107 | 55 | 326 | 2.6 | 8.7 | 0.00 | 0.00 | 0.00 | 56 | 1012.4 |
| 20260503050107 | 55 | 336 | 3.5 | 5.2 | 0.00 | 0.00 | 0.00 | 54 | 1012.5 |
| 20260503045126 | 55 | 347 | 2.6 | 7.0 | 0.00 | 0.00 | 0.00 | 57 | 1012.5 |
| 20260503044126 | 55 | 334 | 2.6 | 4.3 | 0.00 | 0.00 | 0.00 | 56 | 1012.5 |
| 20260503043106 | 55 | 266 | 1.7 | 4.3 | 0.00 | 0.00 | 0.00 | 58 | 1012.6 |
| 20260503042105 | 55 | 330 | 1.7 | 4.3 | 0.00 | 0.00 | 0.00 | 59 | 1012.5 |
| 20260503041126 | 56 | 347 | 1.7 | 5.2 | 0.00 | 0.00 | 0.00 | 60 | 1012.5 |
| 20260503040107 | 56 | 320 | 2.6 | 6.1 | 0.00 | 0.00 | 0.00 | 60 | 1012.5 |
| 20260503035107 | 56 | 349 | 1.7 | 3.5 | 0.00 | 0.00 | 0.00 | 60 | 1012.5 |
| 20260503034107 | 56 | 314 | 1.7 | 3.5 | 0.00 | 0.00 | 0.00 | 61 | 1012.4 |
| 20260503033106 | 56 | 5 | 1.7 | 6.1 | 0.00 | 0.00 | 0.00 | 60 | 1012.2 |
| 20260503032106 | 56 | 341 | 2.6 | 5.2 | 0.00 | 0.00 | 0.00 | 58 | 1012.2 |
| 20260503031104 | 56 | 6 | 2.6 | 5.2 | 0.00 | 0.00 | 0.00 | 57 | 1012.3 |
| 20260503030103 | 57 | 323 | 1.7 | 4.3 | 0.00 | 0.00 | 0.00 | 57 | 1012.4 |
| 20260503025102 | 57 | 342 | 3.5 | 7.8 | 0.00 | 0.00 | 0.00 | 54 | 1012.6 |
| 20260503024059 | 57 | 355 | 3.5 | 8.7 | 0.00 | 0.00 | 0.00 | 53 | 1012.6 |
| 20260503023057 | 57 | 333 | 4.3 | 7.8 | 0.00 | 0.00 | 0.00 | 53 | 1012.4 |
| 20260503022057 | 57 | 346 | 3.5 | 8.7 | 0.00 | 0.00 | 0.00 | 53 | 1012.4 |
| 20260503021115 | 57 | 330 | 3.5 | 7.0 | 0.00 | 0.00 | 0.00 | 54 | 1012.3 |
| 20260503020053 | 57 | 324 | 2.6 | 7.0 | 0.00 | 0.00 | 0.00 | 56 | 1012.3 |
| 20260503015052 | 57 | 343 | 4.3 | 9.6 | 0.00 | 0.00 | 0.00 | 55 | 1012.4 |
| 20260503014110 | 57 | 332 | 4.3 | 9.6 | 0.00 | 0.00 | 0.00 | 55 | 1012.3 |
| 20260503013048 | 57 | 350 | 4.3 | 9.6 | 0.00 | 0.00 | 0.00 | 55 | 1012.2 |
| 20260503012046 | 57 | 331 | 3.5 | 10.4 | 0.00 | 0.00 | 0.00 | 55 | 1011.9 |
| 20260503011046 | 57 | 3 | 5.2 | 11.3 | 0.00 | 0.00 | 0.00 | 55 | 1012.0 |
| 20260503010044 | 56 | 343 | 4.3 | 9.6 | 0.00 | 0.00 | 0.00 | 55 | 1012.1 |
| 20260503005041 | 57 | 337 | 4.3 | 7.8 | 0.00 | 0.00 | 0.00 | 55 | 1012.0 |
| 20260503004041 | 57 | 353 | 5.2 | 9.6 | 0.00 | 0.00 | 0.00 | 54 | 1011.8 |
| 20260503003100 | 56 | 333 | 5.2 | 7.8 | 0.00 | 0.00 | 0.00 | 54 | 1011.9 |
| 20260503002037 | 57 | 342 | 5.2 | 9.6 | 0.00 | 0.00 | 0.00 | 54 | 1011.6 |
| 20260503001035 | 56 | 346 | 5.2 | 12.2 | 0.00 | 0.00 | 0.00 | 52 | 1011.5 |